Starlink 6346

operational
NORAD ID: 57243 Int'l Des: 2023-094 Owner: SPXS Country: US Constellation: starlink
LEOCIRCULAR

关于 Starlink 6346

正在加载描述...

实时位置

正在加载3D地球...

即将过境

高度历史

Altitude vs Time

uPlot chart will show altitude changes over time

两行轨道根数

1 57243U 23094AB 25306.44688374 .00014221 00000-0 10674-2 0 9999
2 57243 43.0041 349.2176 0000810 285.7100 74.3653 15.02472902128123
Epoch: Nov 2, 2025 • Age: 28 hours

当前状态

高度 566.8 km
速度 7.58 km/s
星下点 -29.55°S, 65.84°W
发射日期 Jul 7, 2023
运行时间 2.3 years
类型 internet

技术详情

分类 Payload
质量 305.00 kg
干质量 290.00 kg
总质量 305.00 kg
长度 0.20 m
直径 2.80 m
跨度 9.00 m
形状 Box + pan
制造商 SPXS
平台类型 Starlink
阶段状态 In Orbit
所有者/国家 SPXS/US

大型星座

Loading constellations...